EW1800 Manahawkin NJ US current weather conditions

sailwx.info

Wind from 163 at 3 knots gusting 3

Air temperature 28.9° C
Dewpoint 23.8° C

Last reported at 2020-Jul-10 02:40 UTC.
Time now 2020-Jul-10 03:02 UTC

Location: N 39°41' W 074°15'.
View on Google Maps.

See reports from other nearby stations

  
Tides and Currents Weather Stations Pressure Air Temp Water Temp Dewpoint Dewpoint Depression Visibility Wind Speed Wind Dir Waves Ship Positions
date/time (UTC)wind fromknots sea level pressurealtimeterstation pressurevisibilityair tempwater tempwave heightnotes
2020-Jul-10 02:40 163 3 gusting 3 28.9
2020-Jul-10 02:35 163 3 gusting 3 28.9
2020-Jul-10 02:30 163 3 gusting 3 28.9
2020-Jul-10 02:24 163 3 gusting 3 28.9
2020-Jul-10 02:20 28.9
2020-Jul-10 02:15 28.9
2020-Jul-10 02:09 28.9
2020-Jul-10 02:04 28.9
2020-Jul-10 02:00 28.9
2020-Jul-10 01:53 28.9
2020-Jul-10 01:50 28.9
2020-Jul-10 01:42 28.9
2020-Jul-10 01:39 28.9
2020-Jul-10 01:33 28.9
2020-Jul-10 01:29 28.9
2020-Jul-10 01:23 28.9
2020-Jul-10 01:20 28.9
2020-Jul-10 01:14 28.9
2020-Jul-10 01:09 28.9
2020-Jul-10 01:05 28.9
2020-Jul-10 01:00 28.9
2020-Jul-10 00:50 28.9
2020-Jul-10 00:44 28.9
2020-Jul-10 00:40 28.9
2020-Jul-10 00:35 28.9
2020-Jul-10 00:30 28.9
2020-Jul-10 00:25 28.9
2020-Jul-10 00:20 28.9
2020-Jul-10 00:13 139 2 gusting 2 28.9
2020-Jul-10 00:10 139 2 gusting 2 28.9
2020-Jul-10 00:05 139 2 gusting 2 28.9
2020-Jul-09 23:59 139 2 gusting 2 28.9
2020-Jul-09 23:54 139 2 gusting 2 28.9
2020-Jul-09 23:48 139 2 gusting 2 28.9
2020-Jul-09 23:44 139 2 gusting 2 28.9
2020-Jul-09 23:39 139 2 gusting 2 28.9
2020-Jul-09 23:35 139 2 gusting 2 28.9
2020-Jul-09 23:30 139 2 gusting 2 28.9
2020-Jul-09 23:25 139 2 gusting 2 28.9
2020-Jul-09 23:18 139 2 gusting 2 28.9
2020-Jul-09 23:14 139 2 gusting 2 28.9
2020-Jul-09 23:09 139 2 gusting 2 28.9
2020-Jul-09 23:01 139 2 gusting 2 28.9
2020-Jul-09 23:00 139 2 gusting 2 28.9
2020-Jul-09 22:54 139 2 gusting 2 28.9
2020-Jul-09 22:49 139 2 gusting 2 28.9
2020-Jul-09 22:44 139 2 gusting 2 28.9
2020-Jul-09 22:40 139 2 gusting 2 28.9
2020-Jul-09 22:32 139 2 gusting 2 28.9
2020-Jul-09 22:30 139 2 gusting 2 28.9
2020-Jul-09 22:21 005 2 gusting 2 28.9
2020-Jul-09 22:19 005 2 gusting 2 28.9
2020-Jul-09 22:15 005 2 gusting 2 28.9
2020-Jul-09 22:09 005 2 gusting 2 28.9
2020-Jul-09 22:05 005 2 gusting 2 28.9
2020-Jul-09 21:59 005 2 gusting 2 30.6
2020-Jul-09 21:55 005 2 gusting 2 30.6
2020-Jul-09 21:48 005 2 gusting 2 30.6
2020-Jul-09 21:42 005 2 gusting 2 30.6
2020-Jul-09 21:39 005 2 gusting 2 30.0
2020-Jul-09 21:35 005 2 gusting 2 30.6
2020-Jul-09 21:29 005 2 gusting 2 31.1
2020-Jul-09 21:24 005 2 gusting 2 31.1
2020-Jul-09 21:20 023 2 gusting 2 31.1
2020-Jul-09 21:12 095 2 gusting 2 30.0
2020-Jul-09 21:09 085 2 gusting 2 30.6
2020-Jul-09 21:03 082 2 gusting 2 31.1
2020-Jul-09 21:00 082 2 gusting 2 31.1
2020-Jul-09 20:55 139 5 gusting 5 31.7
2020-Jul-09 20:47 139 5 gusting 5 31.7
2020-Jul-09 20:45 139 5 gusting 5 32.2
2020-Jul-09 20:40 139 5 gusting 5 32.2
2020-Jul-09 20:33 139 5 gusting 5 31.7
2020-Jul-09 20:25 139 5 gusting 5 32.8
2020-Jul-09 20:20 139 5 gusting 5 32.8
2020-Jul-09 20:14 139 5 gusting 5 32.2
2020-Jul-09 20:09 139 5 gusting 5 33.3
2020-Jul-09 20:05 139 4 gusting 5 32.2
2020-Jul-09 19:57 147 2 gusting 5 32.2
2020-Jul-09 19:54 146 3 gusting 8 31.7
2020-Jul-09 19:48 140 6 gusting 8 31.7
2020-Jul-09 19:45 140 7 gusting 8 31.7
2020-Jul-09 19:40 139 6 gusting 8 31.1
2020-Jul-09 19:34 139 5 gusting 5 31.1
2020-Jul-09 19:29 139 5 gusting 5 31.1
2020-Jul-09 19:24 117 3 gusting 3 31.1
2020-Jul-09 19:19 117 3 gusting 3 31.1
2020-Jul-09 19:14 117 3 gusting 3 31.1
2020-Jul-09 19:10 117 3 gusting 3 31.1
2020-Jul-09 19:04 117 3 gusting 3 31.1
2020-Jul-09 19:00 117 3 gusting 3 31.1
2020-Jul-09 18:55 117 3 gusting 3 31.1
2020-Jul-09 18:49 117 3 gusting 3 31.1
2020-Jul-09 18:45 117 3 gusting 3 31.7
2020-Jul-09 18:38 117 3 gusting 3 32.2
2020-Jul-09 18:29 117 3 gusting 3 32.2
2020-Jul-09 18:24 117 3 gusting 3 31.7
2020-Jul-09 18:18 117 3 gusting 3 32.2
2020-Jul-09 18:14 117 3 gusting 3 33.3
2020-Jul-09 18:09 117 3 gusting 3 33.3
2020-Jul-09 18:01 117 3 gusting 3 33.3
2020-Jul-09 18:00 117 3 gusting 3 33.3
2020-Jul-09 17:54 117 3 gusting 3 33.3
2020-Jul-09 17:49 117 3 gusting 3 33.3
2020-Jul-09 17:42 117 3 gusting 3 33.3
2020-Jul-09 17:40 117 3 gusting 3 33.3
2020-Jul-09 17:35 117 3 gusting 3 33.3
2020-Jul-09 17:30 117 3 gusting 3 33.3
2020-Jul-09 17:25 117 3 gusting 3 32.2
2020-Jul-09 17:19 117 3 gusting 3 32.2
2020-Jul-09 17:14 117 3 gusting 3 32.2
2020-Jul-09 17:10 117 3 gusting 3 32.2
2020-Jul-09 17:04 117 3 gusting 3 32.2
2020-Jul-09 17:00 117 3 gusting 3 32.8
2020-Jul-09 16:52 117 3 gusting 3 32.2
2020-Jul-09 16:49 117 3 gusting 3 32.2
2020-Jul-09 16:45 117 3 gusting 3 32.8
2020-Jul-09 16:40 117 3 gusting 3 32.8
2020-Jul-09 16:34 117 3 gusting 3 32.8
2020-Jul-09 16:30 117 3 gusting 3 32.2
2020-Jul-09 16:24 117 3 gusting 3 32.2
2020-Jul-09 16:19 117 3 gusting 3 31.7
2020-Jul-09 16:13 117 3 gusting 3 31.1
2020-Jul-09 16:07 117 3 gusting 3 32.2
2020-Jul-09 16:05 117 3 gusting 3 31.7
2020-Jul-09 15:59 117 3 gusting 3 32.2
2020-Jul-09 15:55 117 3 gusting 3 32.2
2020-Jul-09 15:50 117 3 gusting 3 32.2
2020-Jul-09 15:45 117 3 gusting 3 32.2
2020-Jul-09 15:36 117 3 gusting 3 31.7
2020-Jul-09 15:34 117 3 gusting 3 31.7
2020-Jul-09 15:30 117 3 gusting 3 25.0
2020-Jul-09 15:25 117 3 gusting 3 25.0
2020-Jul-09 15:20 117 3 gusting 3 25.0
2020-Jul-09 15:13 186 0 gusting 2 25.0
2020-Jul-09 15:08 186 0 gusting 2 25.0
2020-Jul-09 15:05 186 0 gusting 2 25.0
2020-Jul-09 15:00 186 0 gusting 2 25.0
2020-Jul-09 14:53 186 0 gusting 2 25.0
2020-Jul-09 14:50 186 0 gusting 2 25.0
2020-Jul-09 14:45 186 0 gusting 2 25.0
2020-Jul-09 14:40 186 0 gusting 2 25.0
2020-Jul-09 14:35 186 0 gusting 2 25.0
2020-Jul-09 14:29 186 0 gusting 2 25.0
2020-Jul-09 14:25 186 0 gusting 2 25.0
2020-Jul-09 14:20 186 0 gusting 2 25.0
2020-Jul-09 14:15 186 0 gusting 2 25.0
2020-Jul-09 14:09 186 0 gusting 2 25.0
2020-Jul-09 14:05 186 0 gusting 2 25.0
2020-Jul-09 14:00 186 0 gusting 2 25.0
2020-Jul-09 13:55 186 0 gusting 2 25.0
2020-Jul-09 13:50 186 0 gusting 2 25.0
2020-Jul-09 13:45 186 0 gusting 2 25.0
2020-Jul-09 13:38 186 0 gusting 2 25.0
2020-Jul-09 13:34 186 0 gusting 2 25.0
2020-Jul-09 13:30 186 0 gusting 2 25.0
2020-Jul-09 13:25 186 0 gusting 2 25.0
2020-Jul-09 13:20 186 0 gusting 2 25.0
2020-Jul-09 13:15 186 0 gusting 2 25.0
2020-Jul-09 13:05 186 0 gusting 2 25.0
2020-Jul-09 13:00 186 0 gusting 2 25.0
2020-Jul-09 12:55 186 0 gusting 2 25.0
2020-Jul-09 12:50 186 0 gusting 2 25.0
2020-Jul-09 12:44 186 0 gusting 2 25.0
2020-Jul-09 12:38 186 0 gusting 2 25.0
2020-Jul-09 12:34 186 0 gusting 2 25.0
2020-Jul-09 12:28 186 0 gusting 2 25.0
2020-Jul-09 12:25 186 0 gusting 2 25.0
2020-Jul-09 12:20 186 0 gusting 2 25.0
2020-Jul-09 12:15 186 0 gusting 2 25.0
2020-Jul-09 12:10 186 0 gusting 2 25.0
2020-Jul-09 12:02 186 0 gusting 2 25.0
2020-Jul-09 12:00 186 0 gusting 2 25.0
2020-Jul-09 11:55 186 0 gusting 2 25.0
2020-Jul-09 11:49 186 0 gusting 2 25.0
2020-Jul-09 11:41 186 0 gusting 2 25.0
2020-Jul-09 11:40 186 0 gusting 2 25.0
2020-Jul-09 11:31 186 0 gusting 2 25.0
2020-Jul-09 11:28 186 0 gusting 2 25.0
2020-Jul-09 11:24 186 0 gusting 2 25.0
2020-Jul-09 11:16 186 0 gusting 2 25.0
2020-Jul-09 11:14 186 0 gusting 2 25.0
2020-Jul-09 11:09 186 0 gusting 2 24.4
2020-Jul-09 11:05 186 0 gusting 2 24.4
2020-Jul-09 11:00 186 0 gusting 2 24.4
2020-Jul-09 10:55 186 0 gusting 2 23.9
2020-Jul-09 10:50 186 0 gusting 2 23.9
2020-Jul-09 10:45 186 0 gusting 2 23.9
2020-Jul-09 10:40 186 0 gusting 2 23.9
2020-Jul-09 10:32 186 0 gusting 2 22.8
2020-Jul-09 10:30 186 0 gusting 2 22.8
2020-Jul-09 10:24 186 0 gusting 2 22.8
2020-Jul-09 10:20 186 0 gusting 2 22.8
2020-Jul-09 10:14 186 0 gusting 2 22.8
2020-Jul-09 10:10 186 0 gusting 2 22.8
2020-Jul-09 10:05 186 0 gusting 2 22.8
2020-Jul-09 10:00 186 0 gusting 2 22.8
2020-Jul-09 09:55 186 0 gusting 2 22.8
2020-Jul-09 09:50 186 0 gusting 2 22.8
2020-Jul-09 09:43 186 0 gusting 2 22.2
2020-Jul-09 09:40 186 0 gusting 2 22.2
2020-Jul-09 09:35 186 0 gusting 2 22.2
2020-Jul-09 09:30 186 0 gusting 2 22.2
2020-Jul-09 09:25 186 0 gusting 2 22.8
2020-Jul-09 09:18 186 0 gusting 2 22.8
2020-Jul-09 09:15 186 0 gusting 2 22.8
2020-Jul-09 09:10 186 0 gusting 2 22.8
2020-Jul-09 09:05 186 0 gusting 2 22.8
2020-Jul-09 08:59 186 0 gusting 2 22.8
2020-Jul-09 08:55 186 0 gusting 2 22.8
2020-Jul-09 08:50 186 0 gusting 2 22.8
2020-Jul-09 08:45 186 0 gusting 2 23.3
2020-Jul-09 08:39 186 0 gusting 2 23.3
2020-Jul-09 08:35 186 0 gusting 2 23.3
2020-Jul-09 08:29 186 0 gusting 2 23.3
2020-Jul-09 08:25 186 0 gusting 2 23.3
2020-Jul-09 08:19 186 0 gusting 2 23.3
2020-Jul-09 08:14 186 0 gusting 2 23.3
2020-Jul-09 08:10 186 0 gusting 2 23.3
2020-Jul-09 08:04 186 0 gusting 2 23.3
2020-Jul-09 07:59 186 0 gusting 2 23.3
2020-Jul-09 07:55 186 0 gusting 2 23.3
2020-Jul-09 07:50 186 0 gusting 2 23.3
2020-Jul-09 07:45 186 0 gusting 2 24.4
2020-Jul-09 07:40 186 0 gusting 2 24.4
2020-Jul-09 07:35 186 0 gusting 2 24.4
2020-Jul-09 07:29 186 0 gusting 2 24.4
2020-Jul-09 07:25 186 0 gusting 2 24.4
2020-Jul-09 07:20 186 0 gusting 2 24.4
2020-Jul-09 07:15 186 0 gusting 2 24.4
2020-Jul-09 07:09 186 0 gusting 2 24.4
2020-Jul-09 07:04 186 0 gusting 2 24.4
2020-Jul-09 07:00 186 0 gusting 2 24.4
2020-Jul-09 06:55 186 0 gusting 2 24.4
2020-Jul-09 06:50 186 0 gusting 2 24.4
2020-Jul-09 06:45 186 0 gusting 2 24.4
2020-Jul-09 06:40 186 0 gusting 2 24.4
2020-Jul-09 06:35 186 0 gusting 2 24.4
2020-Jul-09 06:30 186 0 gusting 2 24.4
2020-Jul-09 06:23 186 0 gusting 2 24.4
2020-Jul-09 06:20 186 0 gusting 2 24.4
2020-Jul-09 06:15 186 0 gusting 2 24.4
2020-Jul-09 06:09 186 0 gusting 2 24.4
2020-Jul-09 06:05 186 0 gusting 2 24.4
2020-Jul-09 05:53 186 0 gusting 2 24.4
2020-Jul-09 05:49 186 0 gusting 2 24.4
2020-Jul-09 05:45 186 0 gusting 2 24.4
2020-Jul-09 05:40 186 0 gusting 2 24.4
2020-Jul-09 05:32 186 0 gusting 2 24.4
2020-Jul-09 05:28 186 0 gusting 2 24.4
2020-Jul-09 05:24 186 0 gusting 2 24.4
2020-Jul-09 05:20 186 0 gusting 2 24.4
2020-Jul-09 05:15 186 0 gusting 2 24.4
2020-Jul-09 05:10 186 0 gusting 2 24.4
2020-Jul-09 05:05 186 0 gusting 2 24.4
2020-Jul-09 05:00 186 0 gusting 2 24.4
2020-Jul-09 04:55 186 0 gusting 2 24.4
2020-Jul-09 04:50 186 0 gusting 2 24.4
2020-Jul-09 04:44 186 0 gusting 2 24.4
2020-Jul-09 04:40 186 0 gusting 2 24.4
2020-Jul-09 04:34 186 0 gusting 2 24.4
2020-Jul-09 04:29 186 0 gusting 2 24.4
2020-Jul-09 04:22 186 0 gusting 2 24.4
2020-Jul-09 04:19 186 0 gusting 2 24.4
2020-Jul-09 04:13 186 0 gusting 2 24.4
2020-Jul-09 04:09 186 0 gusting 2 24.4
2020-Jul-09 04:04 186 0 gusting 2 24.4
2020-Jul-09 03:59 186 0 gusting 2 24.4
2020-Jul-09 03:54 186 0 gusting 2 24.4
2020-Jul-09 03:49 186 0 gusting 2 24.4
2020-Jul-09 03:43 186 0 gusting 2 24.4
2020-Jul-09 03:39 186 0 gusting 2 24.4
2020-Jul-09 03:32 178 0 gusting 2 24.4
2020-Jul-09 03:25 178 1 gusting 2 24.4
2020-Jul-09 03:20 158 1 gusting 3 24.4
2020-Jul-09 03:18 158 1 gusting 3 24.4
2020-Jul-09 03:14 157 1 gusting 3 24.4
2020-Jul-09 03:09 150 2 gusting 3 24.4
2020-Jul-09 03:04 191 2 gusting 2 24.4
2020-Jul-09 02:58 191 2 gusting 2 24.4
2020-Jul-09 02:53 179 2 gusting 4 24.4
2020-Jul-09 02:49 179 2 gusting 4 24.4
2020-Jul-09 02:44 179 2 gusting 4 24.4
2020-Jul-09 02:39 179 2 gusting 4 25.0
2020-Jul-09 02:34 179 2 gusting 4 25.0
2020-Jul-09 02:27 179 2 gusting 4 25.0
2020-Jul-09 02:22 171 2 gusting 4 25.0
2020-Jul-09 02:19 176 2 gusting 6 25.0
2020-Jul-09 02:14 177 2 gusting 6 25.0
2020-Jul-09 02:09 182 2 gusting 5 25.0
2020-Jul-09 02:03 163 2 gusting 3 25.0
2020-Jul-09 01:58 172 2 gusting 3 25.0
2020-Jul-09 01:54 172 2 gusting 3 25.0
2020-Jul-09 01:49 167 2 gusting 2 25.0
2020-Jul-09 01:44 166 2 gusting 5 25.0
2020-Jul-09 01:37 176 2 gusting 5 25.0
2020-Jul-09 01:32 168 2 gusting 5 25.0
2020-Jul-09 01:29 162 2 gusting 5 25.0
2020-Jul-09 01:23 187 1 gusting 3 25.0
2020-Jul-09 01:18 190 1 gusting 3 25.0
2020-Jul-09 01:14 194 1 gusting 3 25.0
2020-Jul-09 01:09 194 2 gusting 3 25.0
2020-Jul-09 01:03 186 2 gusting 5 25.0
2020-Jul-09 00:58 186 3 gusting 5 25.0
2020-Jul-09 00:54 186 5 gusting 6 25.0
2020-Jul-09 00:48 186 6 gusting 6 25.0
2020-Jul-09 00:39 169 3 gusting 6 25.0
2020-Jul-09 00:33 169 3 gusting 5 25.0
2020-Jul-09 00:29 162 1 gusting 3 25.6
2020-Jul-09 00:24 183 1 gusting 3 25.6
2020-Jul-09 00:19 178 2 gusting 2 25.6
2020-Jul-09 00:14 154 4 gusting 5 25.6
2020-Jul-09 00:08 154 4 gusting 5 25.6
2020-Jul-09 00:02 208 2 gusting 2 26.1
2020-Jul-08 23:59 208 2 gusting 2 26.1
2020-Jul-08 23:54 208 2 gusting 2 26.1
2020-Jul-08 23:49 186 6 gusting 6 26.1
2020-Jul-08 23:45 186 6 gusting 6 26.7
2020-Jul-08 23:40 186 6 gusting 6 26.7
2020-Jul-08 23:33 186 6 gusting 6 26.7
2020-Jul-08 23:26 186 6 gusting 6 27.2
2020-Jul-08 23:25 186 6 gusting 6 27.2
2020-Jul-08 23:18 186 6 gusting 6 28.3
2020-Jul-08 23:13 186 6 gusting 6 28.3
2020-Jul-08 23:09 186 6 gusting 6 28.3
2020-Jul-08 23:01 186 6 gusting 6 30.6
2020-Jul-08 22:59 186 6 gusting 6 30.6
2020-Jul-08 22:51 186 6 gusting 6 30.6
2020-Jul-08 22:50 186 6 gusting 6 30.6
2020-Jul-08 22:45 186 6 gusting 6 30.6
2020-Jul-08 22:37 186 6 gusting 6 30.6
2020-Jul-08 22:35 186 6 gusting 6 30.0
2020-Jul-08 22:30 186 6 gusting 6 30.6
2020-Jul-08 22:25 186 6 gusting 6 30.0
2020-Jul-08 22:20 186 6 gusting 6 31.1
2020-Jul-08 22:15 186 6 gusting 6 31.7
2020-Jul-08 22:10 186 6 gusting 6 31.7
2020-Jul-08 22:05 186 6 gusting 6 31.1
2020-Jul-08 22:00 186 6 gusting 6 30.6
2020-Jul-08 21:54 186 6 gusting 6 31.7
2020-Jul-08 21:49 186 6 gusting 6 31.7
2020-Jul-08 21:44 186 6 gusting 6 31.7
2020-Jul-08 21:39 186 6 gusting 6 31.7
2020-Jul-08 21:34 186 6 gusting 6 31.7
2020-Jul-08 21:29 186 6 gusting 6 31.7
2020-Jul-08 21:24 186 6 gusting 6 31.7
2020-Jul-08 21:19 186 6 gusting 6 31.7
2020-Jul-08 21:14 186 6 gusting 6 31.7
2020-Jul-08 21:09 186 6 gusting 6 32.2
2020-Jul-08 21:04 186 6 gusting 6 31.7
2020-Jul-08 20:59 186 6 gusting 6 31.7
2020-Jul-08 20:54 186 6 gusting 6 32.2
2020-Jul-08 20:49 186 6 gusting 6 32.2
2020-Jul-08 20:44 186 6 gusting 6 31.7
2020-Jul-08 20:39 186 6 gusting 6 32.2
2020-Jul-08 20:34 186 6 gusting 6 31.7
2020-Jul-08 20:29 186 6 gusting 6 31.7
2020-Jul-08 20:24 186 6 gusting 6 32.2
2020-Jul-08 20:19 186 6 gusting 6 32.2
2020-Jul-08 20:13 186 6 gusting 6 32.2
2020-Jul-08 20:09 186 6 gusting 6 32.8
2020-Jul-08 20:02 186 6 gusting 6 32.8
2020-Jul-08 19:59 186 6 gusting 6 32.8
2020-Jul-08 19:54 186 6 gusting 6 32.8
2020-Jul-08 19:48 186 6 gusting 6 32.8
2020-Jul-08 19:42 186 6 gusting 6 32.8
2020-Jul-08 19:39 186 6 gusting 6 32.2
2020-Jul-08 19:34 186 6 gusting 6 32.8
2020-Jul-08 19:28 186 6 gusting 6 32.2
2020-Jul-08 19:24 186 6 gusting 6 32.2
2020-Jul-08 19:19 186 6 gusting 6 32.2
2020-Jul-08 19:14 186 6 gusting 6 31.7
2020-Jul-08 19:06 186 6 gusting 6 32.2
2020-Jul-08 19:03 186 6 gusting 6 31.7
2020-Jul-08 18:59 186 6 gusting 6 31.7
2020-Jul-08 18:53 186 6 gusting 6 31.7
2020-Jul-08 18:45 184 5 gusting 8 31.7
2020-Jul-08 18:40 176 5 gusting 8 31.7
2020-Jul-08 18:39 169 5 gusting 8 31.7
2020-Jul-08 18:31 102 6 gusting 7 31.7
2020-Jul-08 18:28 095 7 gusting 7 31.7
2020-Jul-08 18:23 31.7
2020-Jul-08 18:18 31.7
2020-Jul-08 18:14 32.2
2020-Jul-08 18:08 32.2
2020-Jul-08 18:03 31.7
2020-Jul-08 17:59 31.1
2020-Jul-08 17:54 31.7
2020-Jul-08 17:48 31.1
2020-Jul-08 17:44 31.1
2020-Jul-08 17:39 31.1
2020-Jul-08 17:34 31.1
2020-Jul-08 17:29 31.1
2020-Jul-08 17:24 31.1
2020-Jul-08 17:18 31.1
2020-Jul-08 17:14 31.1
2020-Jul-08 17:10 31.1
2020-Jul-08 17:05 31.1
2020-Jul-08 16:58 31.1
2020-Jul-08 16:54 31.1
2020-Jul-08 16:46 31.1
2020-Jul-08 16:44 31.1
2020-Jul-08 16:40 31.1
2020-Jul-08 16:35 31.1
2020-Jul-08 16:30 31.1
2020-Jul-08 16:25 31.1
2020-Jul-08 16:20 31.1
2020-Jul-08 16:15 31.1
2020-Jul-08 16:10 31.7
2020-Jul-08 16:05 31.1
2020-Jul-08 15:59 31.7
2020-Jul-08 15:54 31.1
2020-Jul-08 15:50 31.1
2020-Jul-08 15:42 30.6
2020-Jul-08 15:40 30.6
2020-Jul-08 15:35 30.6
2020-Jul-08 15:30 30.6
2020-Jul-08 15:24 30.6
2020-Jul-08 15:18 30.0
2020-Jul-08 15:13 30.0
2020-Jul-08 15:08 30.6
2020-Jul-08 15:03 30.6
2020-Jul-08 15:00 30.0
2020-Jul-08 14:54 30.6
2020-Jul-08 14:49 30.6
2020-Jul-08 14:45 30.0
2020-Jul-08 14:38 30.0
2020-Jul-08 14:33 30.0
2020-Jul-08 14:30 30.0
2020-Jul-08 14:24 30.0
2020-Jul-08 14:19 30.0
2020-Jul-08 14:14 30.0
2020-Jul-08 14:10 30.0
2020-Jul-08 14:05 30.0
2020-Jul-08 14:00 30.6
2020-Jul-08 13:55 31.1
2020-Jul-08 13:50 31.1
2020-Jul-08 13:44 31.1
2020-Jul-08 13:40 31.1
2020-Jul-08 13:35 31.1
2020-Jul-08 13:30 28.9
2020-Jul-08 13:25 28.9
2020-Jul-08 13:20 28.9
2020-Jul-08 13:14 28.9
2020-Jul-08 13:10 28.9
2020-Jul-08 13:05 28.9
2020-Jul-08 13:00 28.9
2020-Jul-08 12:53 28.9
2020-Jul-08 12:50 28.9
2020-Jul-08 12:45 28.9
2020-Jul-08 12:36 28.9
2020-Jul-08 12:35 28.9
2020-Jul-08 12:30 28.9
2020-Jul-08 12:25 28.9
2020-Jul-08 12:20 28.9
2020-Jul-08 12:15 28.9
2020-Jul-08 12:09 188 1 gusting 4 29.4
2020-Jul-08 12:05 188 3 gusting 4 28.3
2020-Jul-08 12:00 163 3 gusting 3 28.3
2020-Jul-08 11:52 231 2 gusting 2 27.8
2020-Jul-08 11:49 231 2 gusting 2 26.1
2020-Jul-08 11:45 231 2 gusting 2 26.1
2020-Jul-08 11:40 231 2 gusting 2 26.1
2020-Jul-08 11:34 231 2 gusting 2 26.1
2020-Jul-08 11:29 231 2 gusting 2 26.1
2020-Jul-08 11:25 231 2 gusting 2 26.1
2020-Jul-08 11:20 231 2 gusting 2 25.6
2020-Jul-08 11:15 231 2 gusting 2 25.6
2020-Jul-08 11:05 231 2 gusting 2 25.0
2020-Jul-08 11:00 231 2 gusting 2 24.4
2020-Jul-08 10:55 231 2 gusting 2 24.4
2020-Jul-08 10:50 231 2 gusting 2 24.4
2020-Jul-08 10:45 231 2 gusting 2 23.3
2020-Jul-08 10:39 231 2 gusting 2 23.3
2020-Jul-08 10:35 231 2 gusting 2 23.3
2020-Jul-08 10:29 231 2 gusting 2 23.3
2020-Jul-08 10:22 231 2 gusting 2 23.3
2020-Jul-08 10:19 231 2 gusting 2 23.3
2020-Jul-08 10:15 231 2 gusting 2 23.3
2020-Jul-08 10:09 231 2 gusting 2 23.3
2020-Jul-08 10:03 231 2 gusting 2 23.3
2020-Jul-08 10:00 231 2 gusting 2 23.3
2020-Jul-08 09:50 231 2 gusting 2 23.3
2020-Jul-08 09:45 231 2 gusting 2 23.3
2020-Jul-08 09:40 231 2 gusting 2 23.3
2020-Jul-08 09:34 231 2 gusting 2 23.3
2020-Jul-08 09:30 231 2 gusting 2 23.3
2020-Jul-08 09:17 231 2 gusting 2 23.3
2020-Jul-08 09:15 231 2 gusting 2 23.3
2020-Jul-08 09:09 231 2 gusting 2 23.3
2020-Jul-08 09:02 231 2 gusting 2 23.3
2020-Jul-08 09:00 231 2 gusting 2 23.3
2020-Jul-08 08:46 231 2 gusting 2 23.3
2020-Jul-08 08:43 231 2 gusting 2 23.3
2020-Jul-08 08:40 231 2 gusting 2 23.3
2020-Jul-08 08:34 231 2 gusting 2 23.3
2020-Jul-08 08:28 231 2 gusting 2 23.3
2020-Jul-08 08:25 231 2 gusting 2 23.3
2020-Jul-08 08:20 231 2 gusting 2 23.3
2020-Jul-08 08:13 231 2 gusting 2 23.3
2020-Jul-08 08:10 231 2 gusting 2 23.3
2020-Jul-08 08:05 231 2 gusting 2 23.3
2020-Jul-08 08:00 231 2 gusting 2 23.3
2020-Jul-08 07:55 231 2 gusting 2 23.3
2020-Jul-08 07:49 231 2 gusting 2 23.3
2020-Jul-08 07:44 231 2 gusting 2 23.3
2020-Jul-08 07:37 231 2 gusting 2 23.3
2020-Jul-08 07:35 231 2 gusting 2 23.3
2020-Jul-08 07:29 231 2 gusting 2 23.3
2020-Jul-08 07:24 231 2 gusting 2 23.3
2020-Jul-08 07:20 231 2 gusting 2 23.3
2020-Jul-08 07:14 231 2 gusting 2 23.3
2020-Jul-08 07:10 231 2 gusting 2 23.3
2020-Jul-08 07:05 231 2 gusting 2 23.3
2020-Jul-08 06:59 231 2 gusting 2 23.3
2020-Jul-08 06:54 231 2 gusting 2 23.3
2020-Jul-08 06:49 231 2 gusting 2 23.3
2020-Jul-08 06:40 231 2 gusting 2 23.3
2020-Jul-08 06:34 231 2 gusting 2 23.3
2020-Jul-08 06:30 231 2 gusting 2 23.3
2020-Jul-08 06:25 231 2 gusting 2 23.3
2020-Jul-08 06:20 231 2 gusting 2 23.3
2020-Jul-08 06:15 231 2 gusting 2 23.3
2020-Jul-08 06:10 231 2 gusting 2 23.3
2020-Jul-08 06:04 231 2 gusting 2 23.3
2020-Jul-08 05:57 231 2 gusting 2 23.3
2020-Jul-08 05:55 231 2 gusting 2 23.3
2020-Jul-08 05:47 231 2 gusting 2 23.3
2020-Jul-08 05:45 231 2 gusting 2 23.3
2020-Jul-08 05:40 231 2 gusting 2 23.3
2020-Jul-08 05:34 231 2 gusting 2 23.3
2020-Jul-08 05:30 231 2 gusting 2 23.3
2020-Jul-08 05:24 231 2 gusting 2 23.3
2020-Jul-08 05:20 231 2 gusting 2 23.3
2020-Jul-08 05:15 231 2 gusting 2 23.9
2020-Jul-08 05:07 231 2 gusting 2 23.9
2020-Jul-08 05:02 231 2 gusting 2 23.9
2020-Jul-08 04:59 231 2 gusting 2 23.9
2020-Jul-08 04:55 231 2 gusting 2 23.9
2020-Jul-08 04:49 231 2 gusting 2 23.9
2020-Jul-08 04:44 231 2 gusting 2 23.9
2020-Jul-08 04:39 231 2 gusting 2 23.9
2020-Jul-08 04:35 231 2 gusting 2 23.9
2020-Jul-08 04:29 231 2 gusting 2 23.9
2020-Jul-08 04:23 231 2 gusting 2 23.9
2020-Jul-08 04:20 231 2 gusting 2 23.9
2020-Jul-08 04:15 231 2 gusting 2 23.9
2020-Jul-08 04:10 231 2 gusting 2 23.9
2020-Jul-08 04:04 231 2 gusting 2 23.9
2020-Jul-08 03:59 231 2 gusting 2 24.4
2020-Jul-08 03:54 231 2 gusting 2 24.4
2020-Jul-08 03:50 231 2 gusting 2 24.4
2020-Jul-08 03:45 231 2 gusting 2 24.4
2020-Jul-08 03:40 231 2 gusting 2 24.4
2020-Jul-08 03:33 231 2 gusting 2 24.4
2020-Jul-08 03:28 231 2 gusting 2 24.4
2020-Jul-08 03:25 231 2 gusting 2 24.4
2020-Jul-08 03:20 231 2 gusting 2 24.4
2020-Jul-08 03:15 231 2 gusting 2 24.4
2020-Jul-08 03:10 231 2 gusting 2 24.4
2020-Jul-08 03:04 231 2 gusting 2 24.4